{"data":{"norad_id":53231,"epoch":"2026-09-19T23:13:54.098400Z","epoch_age_seconds":121301,"freshness":"FRESH","line1":"1 53231U 22084AU  26262.96798725  .00000744  00000+0  25380-4 0  9997","line2":"2 53231  97.2843 318.6944 0001274  95.2624 264.8764 15.33434852228676","mean_motion":15.33434852,"eccentricity":0.0001274,"inclination_deg":97.2843,"raan_deg":318.6944,"arg_perigee_deg":95.2624,"mean_anomaly_deg":264.8764,"bstar":2.538e-5,"rev_number":22867,"period_min":93.906826111449,"perigee_km":464.70147925204,"apogee_km":466.44525665379,"semimajor_km":6843.7103679529,"source":"CELESTRAK","updated_at":"2026-09-20T09:00:40.196714Z"}}